470  
ASGM40 PGUM 031510  
RWRGUM  
WEATHER ROUNDUP FOR THE MARIANAS  
NATIONAL WEATHER SERVICE TIYAN GU  
100 AM CHST TUE AUG 04 2020  
 
GUZ001>004-031600-  
MARIANA ISLANDS-  
 
CITY SKY/WX TMP DP RH WIND PRES REMARKS
 
GUAM AIRPORT PTCLDY 81 75 83 E10 29.84F  
ANDERSEN AFB NOT AVBL  
ROTA AIRPORT NOT AVBL  
TINIAN AP NOT AVBL  
SAIPAN AP CLEAR 84 79 84 E13 29.84F HX 96  
 

 
 
 
 
CLICK HERE TO GO TO PREVIOUS BULLETINS.

The Nexlab GU Page Main Text Page